High Yield Ag Solutions

Hybrid Corn Planting Forecast

Guide: OK to plant corn when 5-Day GDU Accumulation greater than or equal to 40 and GDU are trending up. Careful with minimum temperatures below 50 (highlighted in yellow).
Clarksdale, MS Greenwood, MS Leland, MS Yazoo City, MS Bainbridge, GA Newport, AR
Date Low Temp (F) GDU 5 Day GDU Accumulation Low Temp (F) GDU 5 Day GDU Accumulation Low Temp (F) GDU 5 Day GDU Accumulation Low Temp (F) GDU 5 Day GDU Accumulation Low Temp (F) GDU 5 Day GDU Accumulation Low Temp (F) GDU 5 Day GDU Accumulation
03/12/2019 50.0 10.0 51.0 49.0 12.00 58.0 53.0 10.00 52.0 52.0 10.00 51.0 55.0 16.00 84.0 41.0 3.00 31.0
03/13/2019 57.0 16.0 50.0 60.0 18.00 55.0 59.0 18.00 50.0 59.0 18.00 47.0 57.0 18.00 75.0 53.0 11.00 36.0
03/14/2019 55.0 15.0 41.0 59.0 18.00 45.0 56.0 15.00 39.0 58.0 16.00 37.0 62.0 21.00 65.0 47.0 9.00 29.0
03/15/2019 43.0 5.0 34.0 41.0 5.00 35.0 44.0 5.00 31.0 48.0 4.00 27.0 62.0 21.00 52.0 37.0 4.00 26.0
03/16/2019 36.0 5.0 38.0 40.0 5.00 39.0 42.0 4.00 35.0 44.0 3.00 31.0 53.0 8.00 40.0 32.0 4.00 26.0
03/17/2019 34.0 9.0 40.0 32.0 9.00 43.0 36.0 8.00 40.0 42.0 6.00 37.0 49.0 7.00 41.0 35.0 8.00 29.0
03/18/2019 41.0 7.0 41.0 36.0 8.00 44.0 41.0 7.00 42.0 46.0 8.00 40.0 44.0 8.00 45.0 40.0 4.00 31.0
03/19/2019 36.0 8.0 47.0 35.0 8.00 49.0 39.0 7.00 47.0 43.0 6.00 44.0 47.0 8.00 50.0 34.0 6.00 36.0
03/20/2019 36.0 9.0 54.0 36.0 9.00 55.0 37.0 9.00 55.0 42.0 8.00 51.0 42.0 9.00 57.0 38.0 4.00 41.0
03/21/2019 41.0 7.0 54.0 38.0 9.00 56.0 40.0 9.00 57.0 45.0 9.00 57.0 44.0 9.00 63.0 37.0 7.00 44.0
03/22/2019 37.0 10.0 53.0 36.0 10.00 54.0 38.0 10.00 55.0 44.0 9.00 54.0 43.0 11.00 68.0 37.0 10.00 42.0
03/23/2019 37.0 13.0 53.0 38.0 13.00 55.0 39.0 12.00 53.0 48.0 12.00 53.0 43.0 13.00 67.0 40.0 9.00 39.0
03/24/2019 52.0 15.0 54.0 50.0 14.00 56.0 53.0 15.00 54.0 53.0 13.00 53.0 46.0 15.00 67.0 51.0 11.00 42.0
03/25/2019 50.0 9.0 56.0 52.0 10.00 56.0 53.0 11.00 54.0 56.0 14.00 54.0 51.0 15.00 67.0 48.0 7.00 43.0
03/26/2019 43.0 6.0 61.0 44.0 7.00 61.0 45.0 7.00 55.0 48.0 6.00 53.0 56.0 14.00 69.0 39.0 5.00 44.0
03/27/2019 34.0 10.0 57.0 36.0 11.00 57.0 36.0 8.00 51.0 42.0 8.00 49.0 48.0 10.00 63.0 34.0 7.00 40.0
03/28/2019 43.0 14.0 52.0 43.0 14.00 52.0 45.0 13.00 46.0 49.0 12.00 45.0 43.0 13.00 61.0 42.0 12.00 35.0
03/29/2019 59.0 17.0 47.0 53.0 14.00 46.0 56.0 15.00 41.0 55.0 14.00 40.0 48.0 15.00 59.0 55.0 12.00 32.0
03/30/2019 46.0 14.0 44.0 47.0 15.00 45.0 46.0 12.00 38.0 47.0 13.00 37.0 53.0 17.00 57.0 42.0 8.00 32.0
03/31/2019 37.0 2.0 38.0 41.0 3.00 39.0 42.0 3.00 35.0 42.0 2.00 34.0 50.0 8.00 54.0 33.0 1.00 30.0
04/01/2019 34.0 5.0 51.0 35.0 6.00 52.0 35.0 3.00 46.0 38.0 4.00 47.0 48.0 8.00 63.0 29.0 2.00 40.0
04/02/2019 37.0 9.0 64.0 36.0 8.00 64.0 37.0 8.00 57.0 40.0 7.00 60.0 50.0 11.00 81.0 35.0 9.00 50.0
04/03/2019 41.0 14.0 72.0 38.0 13.00 75.0 41.0 12.00 66.0 45.0 11.00 74.0 44.0 13.00 96.0 41.0 12.00 54.0
04/04/2019 54.0 8.0 74.0 55.0 9.00 76.0 55.0 9.00 71.0 57.0 10.00 79.0 51.0 14.00 105.0 52.0 6.00 58.0
04/05/2019 55.0 15.0 87.0 57.0 16.00 88.0 56.0 14.00 81.0 59.0 15.00 88.0 62.0 17.00 112.0 53.0 11.00 70.0
04/06/2019 55.0 18.0 93.0 56.0 18.00 92.0 54.0 14.00 86.0 57.0 17.00 93.0 68.0 26.00 118.0 48.0 12.00 79.0
04/07/2019 63.0 17.0 97.0 62.0 19.00 99.0 62.0 17.00 91.0 64.0 21.00 98.0 68.0 26.00 116.0 59.0 13.00 89.0
04/08/2019 61.0 16.0 91.0 61.0 14.00 93.0 62.0 17.00 84.0 62.0 16.00 90.0 66.0 22.00 114.0 58.0 16.00 86.0
04/09/2019 59.0 21.0 85.0 60.0 21.00 93.0 58.0 19.00 79.0 60.0 19.00 89.0 65.0 21.00 117.0 55.0 18.00 73.0
04/10/2019 55.0 21.0 71.0 52.0 20.00 81.0 55.0 19.00 66.0 58.0 20.00 78.0 62.0 23.00 115.0 57.0 20.00 58.0
04/11/2019 61.0 22.0 62.0 63.0 25.00 72.0 57.0 19.00 58.0 63.0 22.00 69.0 62.0 24.00 104.0 64.0 22.00 48.0
04/12/2019 52.0 11.0 56.0 54.0 13.00 62.0 53.0 10.00 52.0 56.0 13.00 61.0 64.0 24.00 95.0 46.0 10.00 40.0
04/13/2019 59.0 10.0 64.0 59.0 14.00 68.0 59.0 12.00 60.0 59.0 15.00 66.0 62.0 25.00 90.0 49.0 3.00 46.0
04/14/2019 45.0 7.0 65.0 43.0 9.00 66.0 48.0 6.00 60.0 49.0 8.00 63.0 58.0 19.00 87.0 44.0 3.00 51.0
04/15/2019 43.0 12.0 59.0 41.0 11.00 59.0 32.0 11.00 57.0 45.0 11.00 59.0 50.0 12.00 83.0 41.0 10.00 51.0
04/16/2019 52.0 16.0 55.0 49.0 15.00 58.0 50.0 13.00 55.0 52.0 14.00 57.0 48.0 15.00 81.0 53.0 14.00 51.0
04/17/2019 61.0 19.0 52.0 59.0 19.00 57.0 60.0 18.00 56.0 58.0 18.00 56.0 54.0 19.00 79.0 59.0 16.00 51.0
04/18/2019 54.0 11.0 48.0 53.0 12.00 54.0 54.0 12.00 54.0 53.0 12.00 54.0 60.0 22.00 76.0 48.0 8.00 53.0
04/19/2019 46.0 1.0 54.0 48.0 2.00 61.0 50.0 3.00 60.0 47.0 4.00 60.0 54.0 15.00 74.0 47.0 3.00 64.0
04/20/2019 41.0 8.0 70.0 43.0 10.00 79.0 44.0 9.00 76.0 44.0 9.00 76.0 49.0 10.00 81.0 44.0 10.00 79.0
04/21/2019 46.0 13.0 79.0 46.0 14.00 89.0 47.0 14.00 86.0 48.0 13.00 87.0 47.0 13.00 95.0 48.0 14.00 86.0
04/22/2019 54.0 15.0 82.0 52.0 16.00 94.0 54.0 16.00 90.0 54.0 16.00 93.0 51.0 16.00 105.0 57.0 18.00 89.0
04/23/2019 57.0 17.0 85.0 57.0 19.00 98.0 57.0 18.00 93.0 58.0 18.00 96.0 56.0 20.00 113.0 59.0 19.00 91.0
04/24/2019 58.0 17.0 87.0 59.0 20.00 101.0 59.0 19.00 95.0 60.0 20.00 100.0 59.0 22.00 117.0 60.0 18.00 91.0
04/25/2019 58.0 17.0 90.0 60.0 20.00 103.0 59.0 19.00 97.0 62.0 20.00 102.0 61.0 24.00 120.0 58.0 17.00 93.0
04/26/2019 58.0 16.0 91.0 59.0 19.00 104.0 59.0 18.00 98.0 61.0 19.00 104.0 63.0 23.00 121.0 58.0 17.00 94.0
04/27/2019 58.0 18.0 93.0 59.0 20.00 106.0 59.0 19.00 100.0 61.0 19.00 107.0 64.0 24.00 123.0 60.0 20.00 94.0
04/28/2019 58.0 19.0 92.0 60.0 22.00 107.0 59.0 20.00 100.0 62.0 22.00 108.0 64.0 24.00 124.0 58.0 19.00 91.0
04/29/2019 60.0 20.0 90.0 61.0 22.00 105.0 61.0 21.00 100.0 63.0 22.00 106.0 64.0 25.00 125.0 60.0 20.00 89.0
04/30/2019 58.0 18.0 87.0 59.0 21.00 103.0 60.0 20.00 99.0 62.0 22.00 105.0 64.0 25.00 125.0 58.0 18.00 86.0

This table shows the five-day forward looking GDU accumulation for previous and forecast weather observations. The GDU accumulation is for a row in the table and includes the next 4 days. Researchers recommend that when a location receives more than 40 accumulated GDUs hybrid corn can be planted. High Yield Ag Solutions and KTS Wireless do not warrant the success of any recommendation. Absolutely no warranties are made regarding the success of these recommendations for any particular purpose. User expressly assumes the risk of all factors, including but not limited to acts of God, drought, wind and rain damage, crop disease, and the like, which may affect these recommendations.